Change the Weather History Date:

Thursday, June 28, 2012

  Actual Average Record
Temperature  
Mean Temperature 77 °F 74 °F  
Max Temperature 86 °F 81 °F 98 °F (2010)
Min Temperature 68 °F 66 °F 53 °F (1995)
Degree Days  
Heating Degree Days 0 0  
Month to date heating degree days 18 20  
Since 1 June heating degree days 18 20  
Since 1 July heating degree days 3860 4838  
Cooling Degree Days 12 9  
Month to date cooling degree days 165 163  
Year to date cooling degree days 238 198  
Since 1 June cooling degree days 165 163  
Growing Degree Days 27 (Base 50)    
Moisture  
Dew Point 58 °F    
Average Humidity 53    
Maximum Humidity 69    
Minimum Humidity 36    
Precipitation  
Precipitation 0.00 in 0.11 in 0.94 in (1983)
Month to date precipitation 6.82 3.64  
Year to date precipitation 21.45 20.98  
Snow  
Snow 0.00 in 0.00 in - ()
Month to date snowfall 0.0 0.0  
Since 1 July snowfall 3.7 23.8  
Snow Depth 0.00 in    
Sea Level Pressure  
Sea Level Pressure 29.79 in    
Wind  
Wind Speed 9 mph (WSW)    
Max Wind Speed 15 mph    
Max Gust Speed 31 mph    
Visibility 10 miles    
Events      
T = Trace of Precipitation, MM = Missing Value Source: NWS Daily Summary

Daily Weather History Graph

Daily Weather History Graph

Search for Another Location

Airport or City:

Trip Planner

Search our weather history database for the weather conditions in past years. The results will help you decide how hot, cold, wet, or windy it might be!

Date:

Astronomy

Jun. 28, 2012 Rise Set
Actual Time 5:26 AM EDT 8:30 PM EDT
Civil Twilight 4:53 AM EDT 9:03 PM EDT
Nautical Twilight 4:11 AM EDT 9:45 PM EDT
Astronomical Twilight 3:21 AM EDT 10:35 PM EDT
Moon 3:00 PM EDT (6/28) 12:59 AM EDT (6/28)
Length of Visible Light 16h 09m
Length of Day
15h 03m
Waxing Gibbous, 67% of the Moon is Illuminated
Jun 28
Waxing Gibbous
Jul 3
Full
Jul 10
Last Quarter
Jul 19
New
Jul 26
First Quarter

Hourly Weather History & Observations

Time (EDT) Temp. Heat Index Dew Point Humidity Pressure Visibility Wind Dir Wind Speed Gust Speed Precip Events Conditions
12:51 AM 73.9 °F - 51.1 °F 45% 29.84 in 10.0 mi WNW 10.4 mph - N/A   Scattered Clouds
1:51 AM 73.0 °F - 51.1 °F 46% 29.83 in 10.0 mi WNW 10.4 mph - N/A   Partly Cloudy
2:51 AM 72.0 °F - 51.1 °F 48% 29.83 in 10.0 mi WNW 10.4 mph - N/A   Clear
3:51 AM 71.1 °F - 52.0 °F 51% 29.83 in 10.0 mi WNW 6.9 mph - N/A   Partly Cloudy
4:51 AM 68.0 °F - 53.1 °F 59% 29.83 in 10.0 mi West 5.8 mph - N/A   Clear
5:51 AM 69.1 °F - 54.0 °F 58% 29.84 in 10.0 mi West 8.1 mph - N/A   Partly Cloudy
6:51 AM 71.1 °F - 55.0 °F 57% 29.84 in 10.0 mi WNW 6.9 mph - N/A   Partly Cloudy
7:51 AM 73.0 °F - 55.0 °F 53% 29.84 in 10.0 mi WSW 8.1 mph - N/A   Scattered Clouds
8:51 AM 77.0 °F - 53.1 °F 43% 29.85 in 10.0 mi Variable 5.8 mph - N/A   Scattered Clouds
9:51 AM 80.1 °F - 51.1 °F 36% 29.84 in 10.0 mi WNW 10.4 mph - N/A   Partly Cloudy
10:51 AM 80.1 °F 80.2 °F 55.9 °F 43% 29.83 in 10.0 mi SW 15.0 mph - N/A   Scattered Clouds
11:51 AM 82.0 °F 81.7 °F 57.0 °F 42% 29.82 in 10.0 mi SSW 12.7 mph - N/A   Partly Cloudy
12:51 PM 82.9 °F 81.9 °F 54.0 °F 37% 29.81 in 10.0 mi SW 12.7 mph - N/A   Scattered Clouds
1:51 PM 84.9 °F 83.7 °F 55.9 °F 37% 29.78 in 10.0 mi SW 9.2 mph - N/A   Scattered Clouds
2:51 PM 82.9 °F 82.6 °F 57.9 °F 42% 29.77 in 10.0 mi South 11.5 mph - N/A   Scattered Clouds
3:51 PM 81.0 °F 81.7 °F 61.0 °F 50% 29.75 in 10.0 mi South 10.4 mph - N/A   Scattered Clouds
4:51 PM 82.9 °F 84.0 °F 63.0 °F 51% 29.74 in 10.0 mi South 8.1 mph - N/A   Scattered Clouds
5:51 PM 81.0 °F 82.2 °F 63.0 °F 54% 29.73 in 10.0 mi South 9.2 mph - N/A   Scattered Clouds
6:51 PM 80.1 °F 81.7 °F 64.0 °F 58% 29.73 in 10.0 mi SSW 9.2 mph - N/A   Mostly Cloudy
7:51 PM 78.1 °F - 64.9 °F 64% 29.74 in 10.0 mi SSW 6.9 mph - N/A   Scattered Clouds
8:51 PM 79.0 °F - 62.1 °F 56% 29.73 in 10.0 mi SW 6.9 mph - N/A   Scattered Clouds
9:51 PM 79.0 °F - 62.1 °F 56% 29.74 in 10.0 mi SSW 8.1 mph - N/A   Partly Cloudy
10:51 PM 78.1 °F - 63.0 °F 60% 29.75 in 10.0 mi WSW 9.2 mph - N/A   Partly Cloudy
11:51 PM 75.0 °F - 64.0 °F 69% 29.75 in 10.0 mi SW 8.1 mph - N/A   Clear